Kenosha, WI

10:26 AM CDT on June 26, 2017 (GMT -0500)
Kenosha Regional

Weather History for KENW - February, 2014

Change the Weather History Date:

Tuesday, February 18, 2014

  Actual Average Record
Temperature  
Mean Temperature 32 °F -  
Max Temperature 46 °F 35 °F 64 °F (2017)
Min Temperature 17 °F 22 °F -11 °F (2006)
Degree Days  
Heating Degree Days 34    
Moisture  
Dew Point 23 °F    
Average Humidity 70    
Maximum Humidity 92    
Minimum Humidity 44    
Precipitation  
Precipitation 0.00 in - - ()
Sea Level Pressure  
Sea Level Pressure 29.78 in    
Wind  
Wind Speed 12 mph (SW)    
Max Wind Speed 21 mph    
Max Gust Speed 29 mph    
Visibility 7 miles    
Events      
Averages and records for this station are not official NWS values.
T = Trace of Precipitation, MM = Missing Value Source: NWS Daily Summary

Daily Weather History Graph

Daily Weather History Graph

Search for Another Location

Airport or City:

Trip Planner

Search our weather history database for the weather conditions in past years. The results will help you decide how hot, cold, wet, or windy it might be!

Date:

Astronomy

Feb. 18, 2014 Rise Set
Actual Time 6:44 AM CST 5:27 PM CST
Civil Twilight 6:15 AM CST 5:56 PM CST
Nautical Twilight 5:42 AM CST 6:29 PM CST
Astronomical Twilight 5:10 AM CST 7:01 PM CST
Moon 9:26 PM CST (2/18) 8:10 AM CST (2/18)
Length of Visible Light 11h 40m
Length of Day
10h 43m
Waning Gibbous, 87% of the Moon is Illuminated
Feb 18
Waning Gibbous
Feb 22
Last Quarter
Mar 1
New
Mar 8
First Quarter
Mar 16
Full

Hourly Weather History & Observations

Time (CST) Temp. Windchill Dew Point Humidity Pressure Visibility Wind Dir Wind Speed Gust Speed Precip Events Conditions
12:02 AM 24.1 °F 12.0 °F 18.0 °F 77% 29.79 in 6.0 mi West 13.8 mph - N/A   Haze
12:53 AM 25.0 °F 10.9 °F 18.0 °F 75% 29.85 in 6.0 mi WNW 19.6 mph 28.8 mph N/A   Haze
1:53 AM 25.0 °F 13.1 °F 18.0 °F 75% 29.89 in 7.0 mi WNW 13.8 mph - N/A   Overcast
2:53 AM 25.0 °F 13.6 °F 18.0 °F 75% 29.91 in 7.0 mi WNW 12.7 mph - N/A   Overcast
3:53 AM 25.0 °F 17.1 °F 19.0 °F 78% 29.93 in 6.0 mi West 6.9 mph - N/A   Haze
4:50 AM 23.0 °F 15.8 °F 17.6 °F 80% 29.90 in 5.0 mi West 5.8 mph - N/A   Haze
4:53 AM 24.1 °F 17.0 °F 18.0 °F 77% 29.93 in 5.0 mi WNW 5.8 mph - N/A   Haze
5:00 AM 23.0 °F 15.8 °F 18.0 °F 81% 29.89 in 5.0 mi NW 5.8 mph - N/A   Haze
5:53 AM 18.0 °F 11.1 °F 14.0 °F 84% 29.92 in 3.0 mi SE 4.6 mph - N/A   Clear
6:38 AM 17.1 °F 8.7 °F 15.1 °F 92% 29.89 in 2.5 mi SSE 5.8 mph - N/A   Clear
6:53 AM 19.0 °F 10.0 °F 16.0 °F 88% 29.93 in 2.0 mi SE 6.9 mph - N/A   Clear
7:53 AM 19.9 °F 8.6 °F 18.0 °F 92% 29.94 in 2.0 mi South 10.4 mph - N/A   Clear
8:53 AM 27.0 °F 17.3 °F 21.9 °F 81% 29.91 in 3.0 mi SSE 10.4 mph - N/A   Haze
9:53 AM 30.0 °F 19.1 °F 24.1 °F 79% 29.88 in 5.0 mi South 15.0 mph - N/A   Haze
10:53 AM 33.1 °F 24.4 °F 26.1 °F 75% 29.83 in 9.0 mi SSE 11.5 mph - N/A   Clear
11:53 AM 39.0 °F 29.0 °F 27.0 °F 62% 29.74 in 10.0 mi SSE 20.7 mph - N/A   Clear
12:53 PM 45.0 °F 37.6 °F 27.0 °F 49% 29.68 in 10.0 mi South 17.3 mph 27.6 mph N/A   Clear
1:53 PM 46.9 °F - 26.1 °F 44% 29.65 in 10.0 mi South 19.6 mph 25.3 mph N/A   Clear
2:53 PM 46.9 °F - 26.1 °F 44% 29.64 in 10.0 mi SW 11.5 mph - N/A   Clear
3:53 PM 46.9 °F - 26.1 °F 44% 29.64 in 10.0 mi SW 15.0 mph 26.5 mph N/A   Clear
4:53 PM 44.1 °F 37.7 °F 27.0 °F 51% 29.64 in 10.0 mi SW 12.7 mph - N/A   Clear
5:53 PM 43.0 °F 35.7 °F 27.0 °F 53% 29.65 in 10.0 mi SW 15.0 mph 24.2 mph N/A   Clear
6:53 PM 41.0 °F 33.5 °F 28.0 °F 60% 29.64 in 10.0 mi SW 13.8 mph - N/A   Clear
7:53 PM 39.9 °F 32.9 °F 28.9 °F 65% 29.63 in 10.0 mi SW 11.5 mph - N/A   Clear
8:53 PM 37.9 °F 30.5 °F 28.9 °F 70% 29.64 in 10.0 mi WSW 11.5 mph - N/A   Clear
9:53 PM 39.0 °F 32.3 °F 28.0 °F 65% 29.63 in 10.0 mi SW 10.4 mph - N/A   Clear
10:53 PM 36.0 °F 28.0 °F 28.0 °F 73% 29.64 in 10.0 mi WSW 11.5 mph - N/A   Clear
11:53 PM 33.1 °F 26.1 °F 26.1 °F 75% 29.65 in 10.0 mi WSW 8.1 mph - N/A   Clear